RH
4 5 5 4 4 3 2 1 3 8 16 26 35 43 47 50 52 53 55 56 58 60 63 66 68 71 74 77 80 82 83 82 81 79 76 74 73 72 69 60 50 41 37 40 42 45 48 51 52 53 52 52 52 54 56 62 69 75 80 79 76 73 72 73 76 81 87 91 92 90 85 81 80 80 78 67 56 47 43 47 56 70 86 93 97 99
4 5 5 5 4 4 3 2 4 9 18 26 34 41 47 50 52 53 55 56 58 61 64 67 70 73 76 78 80 82 83 84 83 81 78 76 75 76 75 66 53 41 35 37 40 42 44 47 49 50 51 51 51 50 49 51 54 60 66 73 77 80 82 83 85 87 90 89 87 84 80 80 81 79 72 60 50 45 46 57 74 91 100 100 100 100
4 4 4 5 4 4 4 3 4 8 15 23 31 39 46 49 51 53 54 55 57 60 62 66 70 74 77 78 80 82 85 86 85 84 81 77 76 76 75 65 52 40 35 37 39 41 43 46 48 50 51 51 51 50 48 46 45 47 50 55 62 68 75 79 82 83 83 80 77 76 78 82 81 75 64 53 47 47 52 71 88 99 100 100 100 100
4 4 4 4 4 4 4 3 4 7 12 20 28 36 44 48 51 52 54 55 57 59 61 65 69 73 77 79 81 83 86 87 88 87 85 80 78 76 72 61 49 40 36 38 41 44 48 52 54 55 55 55 54 53 51 49 46 44 44 45 49 53 58 63 66 68 69 68 70 74 79 82 79 70 59 52 49 53 65 86 97 100 100 100 100 100
4 4 4 4 4 4 4 2 2 5 10 17 26 34 42 46 49 52 55 56 57 59 60 63 67 72 77 80 82 85 87 90 91 91 89 84 80 76 70 59 49 43 41 43 47 52 58 62 65 65 65 62 60 58 56 55 53 51 49 49 49 50 51 53 56 58 60 62 67 73 78 77 73 66 59 54 55 63 78 93 99 100 100 100 100 100
5 4 4 4 4 4 4 2 2 4 9 16 24 32 40 44 48 52 55 57 58 59 60 62 66 70 75 79 83 86 89 92 94 94 93 87 82 75 68 60 54 51 49 51 55 62 69 73 75 76 75 71 67 62 58 58 59 60 60 60 59 58 56 56 57 58 60 63 68 72 75 72 68 64 60 59 63 73 89 97 100 100 100 100 100 100
5 5 5 4 4 4 4 3 3 5 10 16 23 30 37 42 47 51 56 58 59 59 60 62 65 68 73 78 83 87 91 94 96 96 95 88 81 75 70 68 66 65 62 63 67 73 79 81 83 83 82 79 74 67 60 57 58 60 63 65 65 64 63 61 60 60 62 66 69 71 70 68 66 64 63 64 70 80 95 99 100 100 100 100 100 100
5 5 5 4 4 4 4 4 4 6 10 15 22 29 36 41 46 51 56 58 59 60 60 62 65 68 71 76 81 86 92 95 97 96 93 86 81 77 77 79 80 80 77 76 78 82 85 86 87 88 88 86 82 74 65 59 57 57 60 62 64 65 65 63 61 61 62 64 65 65 64 63 63 64 64 66 73 84 97 99 100 100 100 100 100 100
5 5 5 4 4 4 4 5 5 6 8 15 22 29 35 40 46 51 56 59 60 60 61 62 64 67 70 75 79 84 89 93 94 93 89 84 82 82 85 87 89 89 88 87 88 89 90 91 91 92 92 91 89 83 75 67 63 62 64 66 68 68 68 65 62 59 57 56 56 56 56 56 57 60 65 69 77 87 98 100 100 100 100 100 100 100
5 5 5 5 4 4 3 4 5 6 7 14 21 28 35 41 47 52 56 58 60 61 61 63 64 67 69 72 76 81 85 88 90 89 85 84 84 86 89 90 92 93 93 93 94 94 95 95 95 96 95 95 94 91 87 80 76 74 76 79 80 79 76 72 67 62 57 54 53 52 52 57 62 68 76 83 90 96 99 100 100 100 100 100 100 100
5 5 6 5 5 4 4 4 5 6 7 14 20 27 34 40 46 52 56 58 60 62 62 64 65 67 68 70 73 76 81 84 85 86 85 85 87 88 89 91 93 95 96 97 97 98 98 98 99 99 98 98 97 96 95 93 90 89 90 93 95 93 89 83 78 74 70 70 72 75 79 82 86 90 94 97 99 100 100 100 100 100 100 100 100 100
4 5 6 6 5 5 4 4 5 6 8 13 19 26 33 39 45 51 56 59 61 63 64 66 67 68 69 70 71 74 78 82 85 87 88 88 89 90 91 92 94 96 97 99 99 100 100 100 100 99 99 98 98 98 98 98 98 98 98 99 100 99 98 96 93 91 91 93 94 96 98 98 99 100 100 100 100 100 100 99 99 99 98 99 99 100
4 5 5 6 5 5 3 3 3 4 7 11 17 24 32 38 44 50 55 59 62 64 65 67 69 70 70 70 71 73 77 83 87 91 92 93 93 94 95 95 96 97 98 99 99 100 100 100 100 100 100 99 99 99 98 99 100 100 100 100 100 100 99 100 99 99 100 100 100 100 100 100 100 100 100 100 99 98 98 97 97 98 98 99 100 100
4 4 5 5 6 5 4 2 2 3 5 9 14 20 27 34 41 48 54 58 61 64 66 68 70 72 72 72 72 74 78 84 88 92 94 95 97 97 98 98 98 98 98 98 99 100 100 100 100 100 100 100 100 100 100 100 100 100 100 100 99 99 98 99 99 99 100 100 100 100 100 100 100 100 99 99 98 98 97 97 98 99 99 100 100 100
3 4 4 5 6 6 5 3 2 2 3 6 10 15 21 30 39 47 54 59 62 65 66 68 70 72 74 74 74 75 78 83 87 90 92 95 97 98 99 99 99 99 98 98 98 99 99 99 100 100 100 100 100 100 100 100 100 100 99 99 99 99 98 99 99 99 99 99 99 100 100 99 97 96 95 94 93 93 93 94 95 97 98 98 99 99
3 4 4 5 5 6 6 4 2 2 2 5 7 11 18 27 36 44 52 58 63 67 69 69 70 71 74 76 76 76 77 81 85 88 90 93 96 97 98 98 98 97 96 95 94 94 95 96 97 99 100 100 100 99 99 99 98 98 97 97 98 98 99 99 99 99 99 99 99 98 97 96 95 93 91 90 90 90 92 94 96 97 98 98 98 98
3 3 4 5 5 6 6 5 3 2 2 4 6 10 16 24 32 40 48 55 62 67 71 70 70 70 73 77 78 77 76 79 83 86 88 91 93 95 96 96 95 94 93 92 90 90 90 91 93 95 98 99 99 99 98 98 97 96 95 96 96 97 98 98 99 99 99 99 99 99 99 99 98 98 97 96 96 97 97 98 98 99 99 99 98 97
3 3 4 5 6 6 6 5 4 3 3 3 5 8 12 19 26 34 43 51 58 64 67 68 68 70 72 76 79 79 77 78 81 84 85 87 90 92 93 93 93 93 92 92 91 89 88 87 88 90 93 93 93 93 93 93 93 93 93 93 93 94 94 95 96 96 97 97 97 97 98 98 98 99 99 99 99 99 99 99 99 99 99 99 98 97
3 3 4 5 6 7 7 6 5 3 2 2 3 6 10 15 21 28 36 44 51 57 60 61 63 66 69 73 78 80 79 77 78 80 81 83 85 87 88 89 90 90 91 92 92 92 90 89 88 88 88 88 88 87 87 87 87 87 88 88 89 89 90 90 90 90 90 91 91 92 93 94 95 96 97 97 98 98 98 99 99 99 99 99 99 98
3 3 4 5 5 6 7 6 6 5 3 3 3 4 6 10 15 21 28 34 40 46 50 51 53 57 61 66 72 78 80 78 77 77 77 79 81 83 85 86 86 87 88 90 92 93 93 92 91 90 89 88 87 86 86 85 86 86 87 87 88 88 89 89 89 89 89 89 89 89 89 90 91 92 94 95 96 97 98 98 99 99 99 99 99 99
3 3 4 4 5 6 7 7 7 6 5 4 3 3 3 6 9 13 18 23 28 33 37 39 42 46 50 56 62 69 75 76 76 75 75 76 78 81 84 85 85 85 86 88 91 92 93 93 92 91 91 90 88 87 86 85 85 85 86 87 88 89 89 90 91 91 91 91 91 91 91 91 92 92 93 94 95 96 97 98 98 98 99 99 99 99
3 3 3 3 4 5 6 7 8 8 7 5 3 2 1 2 4 6 10 13 18 21 24 27 30 34 38 44 50 57 64 69 70 71 70 69 72 76 80 82 82 82 82 85 88 91 93 93 93 92 92 91 90 88 87 86 85 85 86 86 87 88 88 89 90 91 92 92 93 93 93 93 94 94 94 95 95 96 96 97 97 97 98 98 98 98
4 3 3 3 3 4 6 7 8 9 8 6 4 3 2 2 2 3 5 7 10 12 15 17 19 22 26 31 36 43 50 56 60 62 62 60 62 66 70 73 74 74 75 79 82 85 87 89 90 91 91 91 90 89 88 87 87 86 86 86 86 86 87 88 88 89 90 91 91 92 92 93 93 93 94 94 95 95 96 96 96 96 96 96 95 95
4 3 3 3 3 4 5 7 8 9 9 7 5 4 2 2 1 2 2 3 4 6 8 9 11 13 17 21 25 30 35 41 46 50 50 49 50 54 59 63 64 64 66 71 76 79 79 80 82 84 85 86 86 86 86 85 85 85 84 84 83 83 84 85 85 86 87 88 89 89 90 90 91 92 92 93 94 94 95 95 96 96 96 95 94 94
4 4 3 3 3 3 4 6 8 9 9 8 7 5 4 3 2 2 1 1 1 2 3 4 5 7 9 13 17 21 22 27 32 36 38 35 36 41 46 51 53 54 55 61 67 72 72 72 72 72 73 74 75 75 75 75 75 75 75 74 75 75 75 76 77 78 80 81 82 84 85 87 88 89 90 91 92 92 93 93 94 95 96 96 96 95
4 4 3 3 3 3 4 5 7 8 9 9 8 7 6 5 4 3 2 1 1 1 1 1 1 2 3 5 9 12 13 16 19 23 25 23 25 29 32 36 38 40 42 46 54 60 63 62 62 61 60 59 58 57 57 57 57 58 58 59 60 60 61 62 63 64 65 68 70 73 76 79 83 85 87 88 89 90 91 91 92 92 93 94 95 96
5 4 4 3 3 3 4 5 6 8 9 10 9 9 8 7 5 4 3 2 2 1 1 1 1 1 1 1 2 4 6 8 10 12 14 14 15 17 20 22 24 27 29 31 35 40 44 45 45 45 44 42 40 39 39 40 40 41 42 42 43 44 44 45 45 46 47 50 52 56 60 66 71 76 80 83 85 87 88 88 88 89 89 90 91 92
5 4 4 3 3 3 4 4 6 7 8 10 10 10 10 9 8 7 6 5 3 2 1 1 1 1 1 1 1 1 2 3 4 5 6 6 6 7 10 12 14 17 19 19 20 21 22 22 22 22 22 23 23 23 24 25 26 26 27 27 27 28 28 28 28 29 30 32 34 37 42 47 53 60 66 72 77 81 84 85 86 86 86 87 87 88
5 4 4 3 3 3 3 4 5 6 8 9 10 11 11 11 10 9 8 7 6 4 3 2 1 1 1 1 1 1 1 1 1 1 2 2 2 2 4 5 7 9 11 11 10 9 8 7 6 5 6 7 8 10 11 12 12 13 13 13 13 13 13 13 13 14 14 16 18 21 24 29 34 41 48 55 62 69 75 78 81 83 84 85 85 86
5 5 4 3 3 3 3 4 5 6 7 9 10 11 11 12 12 12 11 10 9 7 6 4 3 2 2 1 1 1 1 1 1 1 1 1 1 1 1 2 3 4 5 5 4 4 3 2 1 1 1 1 1 2 3 3 4 4 4 4 4 4 4 3 4 4 4 6 7 9 11 15 19 24 29 36 44 51 59 66 72 76 79 82 83 85
6 5 4 4 3 3 3 4 4 5 6 8 9 10 11 12 13 13 13 12 11 10 9 8 6 5 4 3 2 2 1 1 1 1 1 1 1 1 1 1 1 1 2 2 1 1 1 1 1 1 1 1 1 1 1 1 1 1 1 1 1 1 1 1 1 1 1 1 2 3 4 6 8 11 15 20 25 32 40 48 56 63 69 74 77 81
6 6 5 4 4 3 3 3 4 5 6 7 8 10 10 11 13 13 14 14 14 13 12 12 10 9 8 6 5 4 3 2 2 2 2 2 2 1 1 1 1 1 1 1 1 1 1 1 1 1 1 1 1 1 1 1 1 1 1 1 1 1 1 1 1 1 1 1 1 1 1 2 2 4 5 8 11 16 21 28 35 43 51 58 64 68
6 6 5 5 4 3 3 3 4 4 5 6 7 9 10 11 12 13 14 15 15 15 15 15 14 13 12 11 9 8 7 5 4 3 3 3 2 2 2 2 2 1 1 1 1 1 1 1 1 1 1 1 1 1 1 2 2 2 2 1 1 1 1 1 1 1 1 1 1 1 1 1 1 1 1 2 3 5 8 12 17 22 28 35 41 47
6 6 6 5 4 4 3 3 3 4 5 6 7 8 9 11 12 13 14 15 15 16 16 17 17 17 16 15 14 13 11 10 8 6 5 4 4 3 3 2 2 2 2 2 2 2 2 2 2 2 2 2 2 1 1 2 2 2 2 2 2 2 2 2 2 2 1 1 1 1 1 1 1 1 1 1 1 1 2 3 5 8 10 14 18 23
6 6 6 5 5 4 4 4 4 4 4 5 6 7 9 10 12 13 14 14 15 16 16 17 17 18 18 18 18 17 16 14 13 11 9 8 7 5 4 4 3 3 3 2 2 2 2 2 2 2 2 2 2 2 2 2 2 2 2 2 2 2 2 2 2 2 2 2 2 2 2 2 1 1 1 1 1 1 1 1 1 2 3 4 6 8
6 6 6 5 5 4 4 4 4 4 4 5 6 7 9 10 11 13 14 14 15 15 16 16 17 17 18 19 19 19 19 18 17 15 14 12 11 9 8 6 6 5 4 4 3 3 3 3 3 3 2 2 2 2 2 2 2 2 2 2 2 2 2 2 2 2 2 2 2 2 2 2 2 2 2 2 2 2 2 1 1 1 1 1 2 2
6 6 6 5 5 4 4 5 5 5 5 5 6 7 9 10 12 13 14 14 15 15 16 16 17 17 18 18 19 19 20 19 19 18 18 16 15 14 12 10 9 8 7 6 5 5 4 4 4 4 3 3 3 3 3 3 3 3 2 2 2 2 2 2 2 2 3 3 3 2 2 2 2 2 2 2 2 2 2 2 2 2 2 1 1 1
6 6 6 5 5 4 4 5 5 5 5 5 6 7 9 10 12 13 14 15 16 16 16 17 17 18 18 19 19 20 20 20 20 20 20 19 18 17 16 15 14 12 11 10 9 8 7 6 6 5 5 5 4 4 4 4 4 4 3 3 3 3 3 2 2 2 2 3 3 3 3 3 2 2 2 2 2 2 2 2 2 2 2 2 2 2
6 6 6 5 5 5 4 5 5 5 4 5 6 8 9 11 12 14 15 16 16 17 17 17 18 18 19 20 20 21 21 21 21 21 21 21 20 20 19 18 18 16 15 14 13 11 10 10 9 8 7 7 6 6 6 6 5 5 5 5 4 4 3 3 3 3 3 3 3 3 3 3 3 3 3 2 2 2 2 2 2 2 2 2 2 2
6 6 6 5 5 5 4 4 5 5 5 6 7 8 10 11 13 14 15 16 17 18 18 18 19 20 21 22 22 23 23 23 23 23 23 22 22 22 21 21 20 20 19 18 17 15 14 13 12 11 10 10 9 8 8 8 7 7 7 6 6 5 5 4 4 4 3 3 3 3 3 3 3 3 3 3 3 3 3 3 2 2 2 2 2 2
6 6 6 6 5 5 5 4 5 5 6 6 7 8 10 12 13 15 16 17 18 18 19 20 21 22 23 24 24 25 26 26 26 25 25 24 24 23 23 23 22 22 21 21 20 19 18 17 16 15 14 13 12 11 10 10 9 9 8 8 7 7 6 6 5 5 4 4 4 3 3 3 3 3 3 3 3 3 3 3 3 3 3 3 2 2
6 6 7 6 6 5 5 5 5 6 6 6 7 8 10 12 13 15 17 18 18 19 20 21 22 23 24 25 26 27 27 28 28 27 27 26 26 25 25 24 24 23 23 23 22 22 21 20 19 18 17 16 15 14 13 12 12 11 10 10 9 9 8 8 7 6 6 5 5 4 4 3 3 3 3 3 3 3 3 3 3 3 3 3 3 2
6 7 7 7 6 6 5 5 5 6 6 6 8 9 10 12 13 15 17 18 19 19 20 21 22 23 25 26 27 28 28 29 29 29 29 29 28 27 27 26 26 25 25 25 24 24 23 23 22 21 20 19 18 17 16 15 14 13 13 12 11 10 9 9 9 8 7 7 6 5 5 4 4 3 3 3 3 3 3 3 3 3 3 3 3 3
6 7 7 7 7 6 6 6 6 6 7 8 9 10 11 13 14 16 18 18 19 20 21 22 23 24 25 26 27 29 29 30 31 31 31 30 30 29 29 28 27 27 26 26 26 26 25 24 24 23 22 22 21 20 19 18 17 16 15 14 13 12 11 11 10 10 9 8 8 7 6 5 5 4 4 4 3 3 3 3 3 3 3 3 3 3
6 7 8 8 7 7 7 7 7 8 8 9 10 10 12 14 16 17 18 19 19 20 21 22 23 24 25 26 28 29 30 31 31 32 32 32 31 31 30 29 29 28 28 27 27 27 26 26 25 25 25 24 23 22 21 20 19 18 17 17 16 15 14 13 13 12 11 10 10 9 8 7 6 5 4 4 4 4 4 3 3 3 3 3 3 3
7 7 8 8 8 8 8 8 9 9 10 10 11 11 12 15 17 18 19 19 20 20 21 22 23 24 25 26 28 29 31 32 32 33 33 33 32 32 31 31 30 30 29 28 28 28 27 27 27 26 26 25 24 24 23 22 21 20 20 19 18 17 17 16 15 14 14 13 12 11 10 9 8 7 6 5 5 4 4 4 4 4 4 4 3 3
7 8 8 8 9 9 9 9 10 10 11 12 12 12 14 16 18 19 20 20 20 21 21 22 23 24 25 27 28 30 31 32 33 34 34 34 33 33 32 32 31 30 30 29 29 28 28 28 28 27 26 26 25 25 24 24 23 22 22 21 20 19 19 18 17 17 16 15 14 13 12 10 9 8 7 6 6 5 5 5 4 4 4 4 4 3
7 8 9 9 10 10 10 11 11 12 13 13 13 14 15 17 19 20 20 20 21 21 21 22 23 24 25 27 29 30 31 33 34 34 35 34 34 34 33 33 32 31 30 30 29 29 29 28 28 27 27 26 26 25 25 25 24 24 23 22 22 21 20 19 19 19 18 17 16 15 13 12 11 10 9 8 7 7 6 5 5 5 5 4 4 4
8 9 10 10 11 11 12 13 13 14 14 14 15 15 17 18 20 20 21 21 21 21 21 22 23 24 26 28 29 31 32 33 34 35 35 35 35 35 34 33 33 32 31 30 30 30 29 29 28 27 26 26 26 26 25 25 25 24 24 23 23 22 21 21 20 20 19 18 17 16 15 14 13 11 10 9 9 8 7 6 6 6 5 5 4 4
9 10 11 12 13 13 14 14 15 15 16 16 16 17 18 20 21 21 21 21 21 21 22 22 23 25 26 28 30 32 33 34 35 36 36 36 36 36 35 34 33 32 32 31 31 30 30 30 29 27 26 26 26 25 25 25 25 24 24 23 23 22 21 21 21 21 20 19 18 17 16 15 14 13 12 11 10 9 8 8 7 6 6 5 5 4
10 11 12 13 14 15 15 15 16 17 17 17 17 18 20 21 21 21 21 21 21 21 22 22 23 25 27 29 31 33 35 35 36 36 37 37 37 37 36 35 35 34 33 32 32 31 31 31 31 30 27 26 25 25 25 25 24 24 23 23 22 22 21 21 21 21 21 20 19 18 17 16 15 14 13 12 11 10 9 8 8 7 7 6 5 5
Wind_Speed
14 15 15 16 17 18 19 19 20 20 20 20 19 19 19 19 20 21 22 22 22 22 21 19 17 16 15 15 14 14 14 14 15 17 18 20 20 20 19 18 17 16 15 14 14 15 15 16 16 17 16 15 14 13 12 12 11 9 8 7 6 5 5 6 6 7 8 9 11 12 14 15 16 16 17 18 20 22 25 27 27 27 28 32 36 38
14 15 16 17 17 18 18 19 19 19 19 19 19 19 19 19 20 21 22 22 22 22 21 19 17 15 14 13 13 13 14 14 16 18 20 22 23 22 21 19 18 16 15 15 16 17 19 19 20 20 19 18 16 15 14 13 12 11 10 9 7 6 6 6 6 7 8 10 12 13 15 15 16 16 17 19 22 25 27 28 28 29 33 39 44 45
15 16 16 17 17 17 18 18 19 19 19 19 19 19 19 20 20 21 22 23 23 23 21 19 17 14 13 12 12 12 12 13 15 18 21 23 24 24 22 20 18 16 16 17 19 21 23 24 25 25 24 22 20 19 17 15 14 13 12 11 10 9 8 8 8 8 10 11 12 13 14 14 15 16 18 21 24 27 28 29 30 34 39 44 47 49
16 16 16 16 16 17 17 18 18 18 19 19 20 20 20 20 21 21 22 23 24 23 23 21 18 15 13 11 11 10 11 12 14 17 20 23 24 23 21 19 17 17 18 20 22 25 26 28 28 28 28 26 25 23 20 18 17 16 15 14 13 12 11 11 10 10 11 12 12 13 13 13 15 17 19 22 26 28 29 30 34 38 40 42 43 44
16 16 16 16 16 16 16 17 18 19 19 20 20 21 21 21 21 22 23 23 24 24 24 22 20 17 15 12 11 10 10 10 12 15 18 21 22 21 19 17 17 18 20 22 24 26 28 29 30 30 30 29 28 26 24 21 19 18 17 16 16 15 14 13 12 12 12 12 12 13 13 14 16 18 21 24 27 29 30 32 36 38 37 36 35 35
15 16 16 15 15 16 16 17 18 19 20 20 21 21 21 22 22 23 23 24 25 25 25 24 22 20 18 15 14 12 11 10 11 13 16 18 20 19 17 17 19 21 23 24 26 27 29 31 31 31 31 31 30 28 26 24 21 20 19 18 18 17 16 15 14 13 13 13 14 14 15 16 18 20 23 26 28 30 31 34 36 36 34 31 29 28
15 15 15 15 15 15 16 17 18 19 20 20 21 21 22 22 23 23 24 25 26 26 27 26 25 23 21 19 17 15 13 12 11 12 15 17 19 18 18 19 22 23 25 26 27 29 30 32 32 32 32 31 30 29 27 25 23 21 20 20 20 19 18 17 16 16 16 16 16 17 17 19 21 23 25 27 28 30 32 35 36 34 31 29 28 28
15 15 15 15 15 15 16 17 18 19 20 21 21 21 22 22 23 24 25 26 26 27 28 27 26 25 24 22 20 18 16 14 13 13 15 18 19 19 19 22 23 25 26 27 28 30 31 33 33 33 33 32 31 29 27 25 24 22 22 22 22 21 21 20 19 19 18 18 17 17 18 20 22 24 25 26 27 28 30 33 35 34 32 32 32 31
15 15 15 14 15 15 16 17 18 19 20 21 21 22 22 23 24 24 25 26 27 28 28 28 28 27 26 24 22 20 18 16 16 16 18 20 20 20 21 22 23 25 27 28 30 32 33 34 34 34 33 32 31 29 28 26 24 22 22 21 21 20 20 20 20 20 19 18 17 17 17 17 19 21 22 23 24 25 28 31 34 36 36 37 37 34
15 15 14 14 14 15 16 17 18 19 20 21 21 22 22 23 24 24 25 25 26 28 28 29 29 28 27 26 24 23 21 20 20 20 21 22 23 22 21 22 24 26 28 30 32 33 34 35 35 35 34 33 32 30 29 26 24 23 21 20 18 18 18 18 19 19 19 18 17 16 15 14 15 17 20 23 25 28 32 35 37 38 39 38 36 31
14 14 14 14 14 14 15 17 18 19 20 21 21 22 22 22 23 24 24 25 26 27 28 29 29 29 28 27 26 25 24 24 23 24 24 24 24 22 21 22 25 27 30 32 34 35 36 37 37 36 35 34 33 32 30 29 27 26 24 22 20 19 19 19 19 19 19 19 19 18 17 18 20 23 27 31 34 36 38 39 39 39 37 34 29 24
14 14 14 14 14 14 15 16 18 19 20 21 21 22 22 22 23 23 24 25 26 27 28 28 29 29 29 29 28 28 27 26 26 25 25 24 23 22 22 24 26 29 31 33 35 37 38 38 38 38 38 37 36 35 34 32 31 30 30 29 28 27 27 25 24 24 24 24 24 25 27 29 31 34 36 38 38 38 37 37 35 33 29 24 21 18
14 13 13 13 13 14 15 16 17 19 20 21 21 21 22 22 22 23 23 24 25 26 27 28 28 29 29 29 29 29 28 27 26 25 24 23 23 23 24 26 28 30 32 34 35 37 37 37 38 38 37 37 37 37 36 35 34 33 33 34 34 34 33 32 30 29 29 29 29 30 31 32 34 34 34 32 31 29 28 26 24 21 18 16 15 15
13 13 13 13 13 13 14 16 17 19 20 20 21 21 22 22 22 22 23 23 24 25 26 27 27 28 29 29 29 29 29 28 26 24 23 22 23 24 25 27 29 30 31 32 33 34 34 33 33 33 33 34 35 36 36 36 34 33 32 32 32 32 31 30 28 27 27 27 28 28 28 28 26 24 22 21 19 18 17 16 14 13 12 11 12 13
13 13 12 12 13 13 14 15 17 18 19 20 21 22 22 22 22 22 22 23 23 24 25 25 26 27 27 28 28 29 29 28 26 24 23 23 23 23 24 25 26 27 28 28 29 30 30 30 30 30 30 31 32 33 34 34 34 33 32 33 32 31 29 27 24 23 21 21 22 22 21 20 18 16 16 15 14 13 11 11 10 10 10 10 11 12
13 12 12 12 12 13 14 15 16 17 18 20 21 22 22 22 22 21 21 22 23 23 23 23 24 25 26 27 27 28 29 29 29 27 26 25 25 24 23 24 25 25 26 27 27 28 29 30 30 31 30 30 30 30 30 30 30 30 30 31 31 30 28 27 25 23 21 20 19 18 16 15 14 14 14 14 12 11 9 8 8 8 9 10 11 12
13 12 12 12 12 13 14 14 15 16 17 19 21 22 22 22 22 21 21 21 21 21 21 21 22 23 24 25 25 26 27 29 30 30 29 29 28 28 27 27 27 28 28 29 30 31 31 32 33 33 33 31 29 28 27 26 25 25 25 25 25 25 25 25 25 25 24 23 21 19 18 16 14 13 12 11 9 8 6 5 5 6 8 10 12 13
13 12 12 11 12 13 13 14 14 15 17 19 20 22 22 22 22 21 20 20 20 19 19 19 20 21 22 23 23 23 23 26 28 29 29 30 30 30 29 29 29 29 30 30 31 31 32 33 34 35 34 33 32 31 29 28 27 26 25 25 24 24 24 24 24 23 22 22 21 20 18 17 16 14 13 11 10 8 7 6 6 8 9 11 12 13
13 12 11 11 12 12 12 13 14 15 17 19 20 21 22 22 22 21 20 19 18 18 17 18 18 19 20 21 21 20 20 21 23 24 24 26 27 27 27 26 26 26 27 28 29 29 29 30 32 33 33 33 33 32 32 31 31 30 29 29 28 28 27 26 25 24 23 22 21 19 18 17 16 14 13 12 11 10 9 8 9 9 11 12 13 13
13 12 11 11 11 11 12 12 13 14 16 18 19 20 21 21 21 21 20 19 18 17 17 17 17 18 19 20 19 19 18 18 18 18 18 19 20 21 21 22 22 22 23 25 26 26 26 27 28 28 29 30 30 30 30 30 30 30 29 29 29 29 28 28 27 27 26 25 24 22 21 19 18 16 15 14 13 12 11 10 10 11 12 13 13 13
12 12 11 11 11 11 12 12 13 14 15 17 19 20 20 21 21 20 20 19 18 18 17 16 17 18 19 19 19 19 18 17 16 16 16 16 16 17 18 19 19 19 21 23 24 25 25 25 25 25 26 26 27 27 27 27 27 27 27 27 27 27 27 26 26 26 25 25 24 23 22 21 20 19 17 15 14 12 11 10 10 10 11 12 13 13
12 11 11 11 11 11 11 12 12 13 15 16 18 19 20 20 20 20 20 20 19 18 17 17 17 18 19 19 19 19 19 18 17 16 16 16 16 17 18 19 19 19 21 22 23 24 24 24 24 24 24 24 24 24 24 25 25 25 24 24 24 24 24 24 24 24 24 23 23 23 22 22 21 20 19 17 15 13 12 10 9 9 9 10 11 11
12 11 10 10 11 11 11 11 12 12 13 15 16 18 18 19 19 20 20 20 19 19 18 18 19 19 19 19 19 19 19 19 18 17 17 16 17 18 20 20 20 20 21 23 24 24 24 24 24 24 23 23 23 23 23 23 23 23 23 23 22 22 22 22 22 22 22 22 22 22 21 21 20 20 19 18 17 15 14 12 10 9 7 7 7 8
12 11 10 10 10 11 11 11 11 12 12 13 15 16 17 18 18 19 19 19 19 19 19 19 19 19 19 20 20 20 19 19 19 18 18 18 19 20 21 21 21 21 22 23 24 24 24 24 24 24 23 23 22 22 22 22 22 22 22 22 21 21 22 22 22 22 22 21 21 21 21 20 20 19 19 18 17 16 15 14 13 12 11 9 8 7
12 11 10 10 10 11 11 11 11 11 12 12 13 14 15 16 17 18 18 19 19 19 19 19 19 19 20 20 20 20 20 20 20 19 19 19 20 21 22 22 22 21 22 23 24 24 23 23 24 24 23 23 23 22 22 22 22 22 22 21 21 21 21 21 21 21 21 21 21 20 20 20 19 19 18 18 17 17 16 15 14 14 13 12 11 10
12 11 10 10 10 10 10 10 10 10 11 11 12 13 14 15 16 17 17 18 19 19 19 19 19 19 20 20 20 20 20 21 20 20 20 20 21 21 22 23 23 23 23 23 24 23 22 22 23 23 23 23 23 23 23 23 23 22 22 22 22 21 21 21 21 21 20 20 20 19 19 19 18 18 18 17 17 16 16 15 15 14 14 13 13 12
12 11 10 10 10 10 10 10 10 10 10 10 11 12 13 14 15 16 17 17 18 19 19 19 19 19 19 19 19 20 20 21 20 20 20 20 21 21 22 23 23 24 24 24 23 23 22 22 22 23 23 23 24 24 24 24 23 23 23 22 22 22 21 21 21 20 20 19 19 19 18 18 17 17 17 16 16 16 15 15 15 14 14 14 13 13
11 11 10 10 10 10 10 10 10 10 10 10 10 11 12 13 14 15 15 16 17 18 18 18 18 18 18 18 19 19 20 20 20 20 20 20 20 21 22 23 24 24 24 23 23 23 23 23 23 23 23 24 24 25 24 24 24 24 23 23 23 22 22 22 21 21 20 20 19 18 18 17 17 17 16 16 16 15 15 15 15 14 14 14 13 13
11 10 10 10 10 10 10 10 10 10 10 10 10 10 10 11 12 13 14 15 16 17 18 17 17 17 17 17 18 18 19 20 20 20 20 20 20 21 22 23 23 23 23 23 23 23 23 23 24 24 24 25 25 25 25 25 25 24 24 24 24 23 23 23 22 22 21 20 20 19 19 18 17 17 16 16 15 15 15 15 14 14 14 13 13 12
11 10 9 9 9 9 10 10 10 10 10 10 10 9 9 10 11 12 13 13 15 16 16 16 16 16 16 16 16 17 18 18 19 19 20 20 20 21 21 22 23 23 23 23 22 22 22 23 24 24 24 25 25 25 25 25 25 25 25 25 24 24 24 24 23 23 23 22 21 21 20 19 18 18 17 16 16 15 15 14 14 13 13 13 12 12
11 10 9 9 9 9 9 9 10 10 10 10 10 9 9 10 10 11 11 12 13 14 15 15 15 15 15 15 15 16 16 17 18 18 18 19 19 19 20 21 21 22 22 22 22 22 22 23 23 24 24 24 24 24 24 24 24 25 25 25 24 24 24 24 24 24 24 23 23 22 22 21 20 19 18 17 17 16 15 14 13 13 12 12 11 11
12 10 9 9 8 9 9 9 9 10 10 10 10 9 9 10 10 10 10 11 12 12 13 13 14 14 14 14 14 14 15 16 16 16 16 17 17 18 18 19 20 20 21 21 21 21 21 22 22 23 23 23 23 23 23 23 24 24 24 24 24 24 24 24 24 24 24 24 23 23 23 22 22 21 20 19 18 17 16 15 14 13 12 11 11 10
13 11 10 9 8 8 8 9 9 10 10 10 10 10 10 10 10 10 9 10 10 11 11 12 12 13 13 13 12 12 13 14 14 15 15 15 16 16 16 17 17 18 18 19 19 19 20 20 21 21 21 22 22 22 22 22 22 22 22 22 22 22 23 23 23 23 23 23 23 23 23 23 22 22 21 21 20 19 18 17 16 15 13 12 12 11
14 12 11 10 9 8 8 8 9 9 9 9 10 10 10 10 10 10 9 9 9 10 10 10 11 11 12 12 12 11 12 12 13 13 13 14 14 15 15 15 16 16 16 17 17 17 17 18 19 19 19 20 20 20 20 20 20 20 20 21 21 21 21 21 21 21 22 22 22 22 22 22 22 22 22 22 21 21 20 19 18 17 16 15 14 13
15 13 12 10 9 8 8 8 9 9 9 9 9 10 10 10 10 10 9 9 9 9 9 9 9 10 10 11 11 11 11 11 11 12 12 12 13 13 13 14 14 14 14 15 15 15 16 16 17 17 17 18 18 18 18 18 18 18 18 19 19 19 19 20 20 20 20 20 20 21 21 21 21 21 21 21 21 21 20 20 19 19 18 17 16 15
16 14 13 11 10 9 8 8 8 9 9 9 9 10 10 10 10 10 10 9 9 9 9 9 9 9 9 9 10 10 10 10 10 10 10 11 11 11 12 12 12 12 13 13 13 13 14 14 14 15 15 16 16 16 16 16 16 16 16 17 17 17 17 17 18 18 18 18 19 19 19 19 19 20 20 20 20 20 20 20 20 19 19 18 18 17
17 15 14 12 10 9 9 9 9 9 9 9 9 9 10 10 10 10 10 9 9 9 9 9 9 9 9 9 9 9 9 9 9 9 9 9 9 10 10 10 10 11 11 12 12 12 12 12 13 13 14 14 14 14 14 14 14 14 15 15 15 15 15 16 16 16 16 17 17 17 17 17 18 18 18 18 19 19 19 19 19 19 19 19 19 18
18 16 14 13 11 10 9 9 9 9 9 9 9 9 9 10 10 10 10 10 9 9 9 9 9 9 9 9 9 8 8 8 8 8 8 8 8 8 8 9 9 9 10 10 10 10 10 11 12 12 12 13 12 13 13 13 13 13 13 13 13 14 14 14 14 14 15 15 15 15 15 16 16 16 16 17 17 17 17 18 18 18 18 18 18 18
19 17 15 14 12 11 10 10 9 9 9 9 9 9 9 9 9 9 9 9 9 9 9 9 9 9 9 8 8 8 8 8 8 8 8 7 7 7 7 7 7 8 8 8 8 9 9 10 10 11 11 11 11 11 11 12 12 12 12 12 12 12 13 13 13 13 13 13 14 14 14 14 14 15 15 15 15 16 16 16 16 17 17 17 18 18
20 18 16 14 13 12 11 11 10 10 10 9 9 9 9 9 9 9 9 9 9 9 9 8 8 8 8 8 8 8 8 8 8 7 7 7 7 7 6 6 6 6 7 7 7 7 7 8 8 9 10 10 10 10 11 11 11 11 11 11 12 12 12 12 12 12 12 12 12 12 13 13 13 13 14 14 14 14 15 15 15 15 16 16 16 17
20 19 17 16 14 13 12 12 11 10 10 10 9 9 9 9 9 9 9 9 9 9 8 8 8 8 8 8 8 7 7 7 7 7 7 7 7 6 6 6 6 6 6 6 6 6 6 6 7 8 8 8 9 9 9 10 10 10 11 11 11 11 11 11 11 11 11 11 11 11 12 12 12 12 13 13 13 13 13 13 14 14 14 15 15 16
21 20 19 17 16 14 13 12 12 11 11 10 10 9 9 9 9 9 9 8 8 8 8 8 8 8 7 7 7 7 7 7 7 7 6 6 6 6 6 5 5 5 5 5 5 5 5 5 6 6 7 7 7 8 8 9 9 9 9 10 10 10 10 10 10 10 10 10 11 11 11 11 11 11 12 12 12 12 12 13 13 13 13 14 14 15
22 21 20 18 17 15 14 13 13 12 11 11 10 9 9 8 8 8 8 8 8 8 8 7 7 7 7 7 7 7 7 7 7 6 6 6 6 5 5 5 5 5 4 4 4 4 4 4 5 5 5 6 6 6 7 7 8 8 8 8 9 9 9 10 10 9 10 10 10 10 10 10 10 11 11 11 11 12 12 12 12 12 12 13 13 14
23 22 21 19 18 16 15 14 14 13 12 11 11 10 9 8 8 7 7 7 7 7 7 7 7 6 6 6 6 6 6 7 6 6 6 6 5 5 5 4 4 4 4 4 4 4 4 4 4 4 5 5 5 5 6 6 6 7 7 7 7 8 8 9 9 9 9 9 9 9 9 10 10 10 10 10 11 11 11 11 11 11 11 12 12 13
24 23 22 20 19 18 16 15 14 14 13 12 11 10 9 8 8 7 7 7 7 7 6 6 6 6 6 6 6 6 6 6 6 6 6 5 5 5 4 4 4 4 4 4 3 3 3 4 4 4 4 4 4 5 5 5 5 6 6 6 7 7 7 7 7 8 8 8 9 9 9 9 9 9 9 10 10 10 10 11 11 11 11 11 11 12
25 24 23 21 20 18 17 16 15 14 13 13 12 10 9 8 8 7 7 6 6 6 6 5 5 5 5 5 5 6 6 6 6 5 5 5 5 5 4 4 4 4 3 3 3 3 3 3 3 3 3 4 4 4 4 4 5 5 5 5 6 6 6 6 7 7 7 8 8 8 8 8 8 8 9 9 9 10 10 10 10 10 11 11 11 11
25 24 23 22 20 19 18 17 16 15 14 13 12 11 10 9 8 7 6 6 5 5 5 5 4 4 4 5 5 5 5 5 5 5 5 5 5 4 4 4 4 3 3 3 3 3 3 3 3 3 3 3 3 4 4 4 4 4 5 5 5 5 5 6 6 6 6 7 7 7 7 7 8 8 8 9 9 9 9 10 10 10 11 11 11 11
26 25 24 22 21 20 19 18 17 16 15 14 12 11 10 9 8 7 6 5 5 4 4 4 3 3 4 4 4 4 4 4 5 5 5 4 4 4 4 4 4 3 3 3 3 3 3 3 3 3 3 3 3 3 3 3 4 4 4 4 4 4 5 5 5 5 6 6 6 6 7 7 8 8 8 8 8 9 9 9 10 10 10 11 11 11
26 25 24 23 22 21 20 18 17 16 15 14 13 11 10 9 8 7 6 5 4 3 3 3 3 3 3 3 3 3 4 4 4 4 4 4 4 4 4 3 3 3 3 3 2 2 2 2 2 3 3 3 3 3 3 3 3 4 4 4 4 4 4 4 5 5 5 5 6 6 6 7 7 7 7 8 8 9 9 9 9 10 10 10 11 11
26 25 24 23 22 21 20 19 18 17 16 14 13 12 10 9 8 7 6 5 4 3 2 2 2 2 2 2 2 3 3 3 3 3 3 4 4 3 3 3 3 3 2 2 2 2 2 2 2 2 3 3 3 3 3 3 3 3 4 4 4 4 4 4 5 5 5 5 5 6 6 6 7 7 7 7 8 8 9 9 9 9 10 10 10 11
26 26 25 24 23 22 21 20 18 17 16 15 13 12 11 9 8 7 6 4 3 3 2 1 1 1 1 1 1 2 2 2 2 3 3 3 3 3 3 3 3 3 2 2 2 2 2 2 2 2 2 2 3 3 3 3 3 3 3 4 4 4 4 4 4 5 5 5 5 5 6 6 6 7 7 7 8 8 8 9 9 9 9 10 10 10
Wind_Direction
62 56 50 44 38 33 29 27 27 27 28 28 28 28 28 27 27 27 27 26 25 25 25 26 28 32 36 40 43 45 45 39 32 26 22 19 16 13 10 10 11 12 14 19 26 30 32 34 36 38 40 42 46 50 54 57 62 67 74 84 99 120 141 158 170 177 181 181 179 174 169 167 167 169 170 169 168 166 166 166 166 167 170 172 174 176
63 57 51 45 39 33 30 29 29 30 31 31 31 31 31 30 30 30 30 30 30 29 29 29 31 35 41 46 50 51 48 39 31 26 23 20 18 16 14 15 16 18 22 31 39 44 45 45 45 45 46 47 49 52 56 60 64 68 72 77 86 97 115 134 150 159 163 163 161 160 160 162 165 166 166 165 163 162 163 163 164 165 167 168 170 173
63 57 52 46 40 34 31 31 31 31 32 33 33 33 33 32 32 32 32 32 32 32 32 32 34 38 44 50 54 54 47 38 30 25 22 20 18 16 17 19 22 26 34 43 50 53 54 53 52 50 50 50 51 53 56 60 64 68 71 75 80 86 96 109 122 134 142 146 149 151 154 158 161 163 162 161 160 160 162 162 162 163 164 166 169 172
63 58 53 47 41 36 33 32 32 32 33 34 35 36 35 34 34 34 33 33 33 34 34 35 36 40 45 52 55 54 46 35 27 23 22 20 18 17 20 26 32 39 46 52 55 57 57 56 55 53 51 51 51 52 54 58 62 68 72 76 80 85 92 100 110 121 129 135 140 144 149 153 157 158 159 158 159 160 161 161 160 161 164 167 169 170
64 59 54 47 42 37 35 34 34 34 34 35 37 38 37 37 37 37 37 36 36 36 36 38 40 43 48 52 55 52 44 33 25 21 21 20 19 21 27 37 46 51 54 57 58 58 58 57 55 54 52 51 50 50 52 55 60 66 72 77 82 87 93 100 107 115 123 128 133 137 142 148 151 154 156 157 158 159 160 160 160 163 166 168 169 170
65 60 55 48 43 38 37 36 36 36 37 38 39 40 40 40 40 41 41 40 40 40 40 41 43 46 51 54 55 51 43 33 25 20 20 20 22 27 39 51 57 59 59 59 59 59 58 56 55 54 52 52 51 51 51 54 58 65 72 78 83 87 92 98 104 111 117 122 126 131 137 142 147 150 153 156 158 159 160 160 162 165 169 171 173 174
66 61 56 50 44 40 38 39 39 39 40 41 42 42 43 43 44 45 45 45 44 44 44 44 46 49 52 55 55 53 47 38 29 23 21 22 27 36 51 60 62 61 61 61 60 59 58 56 55 54 53 52 52 52 53 55 58 64 71 77 81 84 88 93 99 105 112 117 123 129 135 140 144 148 153 157 159 160 161 162 164 167 171 174 176 175
66 63 58 52 46 42 40 41 42 42 43 44 45 45 46 46 47 48 48 48 48 48 47 48 49 50 53 55 56 55 51 45 37 30 27 28 34 46 60 65 65 64 63 62 62 61 60 58 57 55 54 52 52 53 54 56 59 62 68 74 78 82 86 89 94 99 106 112 120 127 133 139 144 148 153 157 159 162 163 165 167 169 171 172 170 168
66 62 59 54 48 44 43 44 45 45 46 47 47 48 48 49 50 51 51 51 51 50 50 50 51 52 54 55 57 57 55 51 44 38 35 38 45 55 64 68 68 67 66 65 64 63 63 62 60 59 56 54 52 52 53 56 58 61 64 70 76 83 88 92 95 98 101 106 112 120 129 135 141 147 152 157 162 166 170 173 173 173 171 167 163 159
67 63 59 56 51 46 45 47 48 48 49 49 50 51 51 52 53 53 53 53 53 52 51 51 51 53 54 56 57 58 57 54 50 46 45 48 54 60 64 68 71 72 71 70 69 68 67 66 65 63 61 58 56 53 53 55 58 61 64 69 77 85 94 99 102 103 103 103 104 109 117 126 136 145 153 160 165 169 172 174 174 171 167 162 158 155
69 64 61 57 54 50 48 49 50 51 52 53 53 54 54 55 56 55 55 54 54 53 53 52 52 53 54 56 57 58 58 56 54 52 53 56 59 61 64 68 73 76 77 76 75 75 74 73 72 71 69 66 63 61 59 59 62 67 72 78 84 89 93 99 102 103 102 101 102 106 115 126 137 146 152 156 159 160 162 163 163 162 159 156 154 155
71 67 63 60 57 54 52 51 52 53 55 56 57 58 58 58 59 58 57 56 55 55 54 54 54 54 55 56 57 59 59 58 57 57 58 60 62 64 67 71 76 79 81 82 82 82 82 81 80 79 78 76 74 73 72 71 73 78 85 91 96 98 98 99 101 103 104 108 114 121 129 137 144 149 151 152 152 152 152 152 153 153 153 154 156 159
73 69 66 63 60 58 55 55 55 56 58 59 61 62 62 62 61 60 59 58 57 57 56 55 56 57 57 58 59 61 62 62 62 62 63 66 68 71 74 78 81 83 84 85 86 87 87 87 86 85 85 85 85 85 85 85 86 89 95 101 105 107 108 110 112 115 120 125 130 135 140 144 146 148 148 147 146 146 147 149 151 154 158 161 163 163
75 71 68 66 64 61 59 58 59 60 62 62 63 63 63 63 63 62 61 60 60 59 58 58 59 60 60 61 62 64 65 66 67 68 70 72 74 76 78 81 83 85 86 86 87 88 88 88 87 87 88 89 91 93 95 95 96 98 101 105 108 111 114 118 121 125 130 135 139 142 143 142 140 136 134 134 135 139 143 147 151 153 154 157 159 159
77 73 71 69 67 65 63 62 62 63 64 64 64 64 64 64 65 64 63 62 62 61 61 61 62 63 64 65 65 66 68 70 72 74 76 77 78 78 78 79 80 82 82 83 83 84 84 84 83 84 86 89 93 96 99 100 101 102 103 104 107 110 114 117 120 123 127 132 135 137 135 129 120 110 105 103 105 109 114 119 122 125 129 134 141 146
79 75 72 70 69 68 66 65 64 64 65 65 65 65 66 66 66 66 66 65 65 64 63 63 65 67 68 68 68 69 71 73 75 77 79 80 80 79 77 76 76 76 77 78 78 79 80 80 80 81 83 86 90 93 96 98 99 99 99 100 102 105 108 110 113 115 117 119 121 121 118 111 102 94 89 86 83 82 84 89 97 107 118 127 135 140
81 77 73 72 71 71 70 68 67 66 66 66 66 67 67 68 68 68 68 68 67 67 67 66 67 69 71 72 72 72 72 74 76 78 80 81 81 81 79 78 77 76 75 75 76 77 78 79 79 80 81 83 84 86 88 90 91 92 92 93 95 97 100 102 105 108 111 113 115 116 115 114 111 108 104 101 99 98 99 106 118 128 134 139 142 144
84 79 75 73 73 73 73 71 70 68 68 68 68 69 69 69 69 69 69 70 71 71 71 70 69 70 72 75 75 74 74 75 77 79 80 81 81 81 80 78 77 75 75 74 74 75 76 78 79 80 81 82 82 82 82 82 82 82 83 83 85 87 90 93 97 100 103 106 110 113 117 120 123 125 128 129 131 136 141 148 153 154 152 151 151 152
85 81 77 75 75 75 75 74 73 71 71 70 70 71 71 70 70 70 71 72 73 73 73 72 72 72 74 75 77 76 75 76 77 79 79 79 80 79 78 76 74 72 72 71 72 72 74 76 79 81 82 83 83 82 82 81 80 80 79 79 80 80 82 83 84 86 89 91 95 99 103 108 113 117 121 123 125 126 130 137 146 153 156 157 158 159
87 84 80 78 77 77 78 77 76 74 73 73 72 72 73 72 72 72 73 73 73 73 73 73 73 73 74 75 76 76 75 73 73 74 75 75 76 75 74 71 69 68 68 69 70 70 72 74 77 80 82 84 84 84 83 82 81 80 80 79 79 80 80 80 80 81 81 82 84 85 88 90 93 97 100 103 106 110 114 123 135 147 155 160 164 168
89 86 83 81 79 79 80 80 79 77 76 76 75 75 75 74 74 74 74 73 73 73 72 72 72 73 73 74 74 74 74 70 66 64 65 67 69 69 68 66 65 65 67 69 70 71 71 73 76 78 81 82 83 84 83 82 81 81 80 80 80 80 80 80 81 80 81 81 80 81 81 82 83 84 86 90 94 100 109 121 137 151 162 170 175 180
92 89 86 84 82 82 82 81 81 80 80 79 78 78 77 77 76 75 74 73 73 72 72 72 71 72 72 72 73 73 72 70 64 59 58 58 61 63 64 62 62 64 67 69 71 72 73 74 75 77 79 81 82 82 82 81 80 79 79 79 79 79 80 80 80 81 81 80 80 80 80 80 80 81 82 85 88 94 103 115 132 150 167 180 189 196
97 92 87 85 84 84 84 84 84 84 83 82 81 80 79 79 78 76 75 74 73 71 71 70 70 70 71 71 71 71 71 70 66 61 56 55 57 59 60 59 59 61 65 68 70 71 73 74 76 77 78 79 80 80 80 79 78 77 77 77 77 78 78 79 79 79 79 79 79 79 79 79 79 79 80 81 83 86 90 96 105 116 132 153 174 191
103 97 91 88 87 86 87 87 88 87 87 86 85 84 82 81 80 78 76 75 73 71 69 68 68 68 69 69 70 70 70 70 68 64 59 57 58 59 59 58 57 58 62 66 67 68 70 73 75 76 77 78 79 79 79 78 77 76 75 75 76 76 77 78 78 78 78 77 77 77 76 76 76 76 76 76 76 76 77 79 82 86 91 99 108 121
108 103 96 91 89 88 89 90 91 91 91 89 88 87 85 84 82 80 79 77 75 72 69 67 66 67 68 68 68 69 69 70 69 67 63 61 61 61 61 60 58 57 61 64 66 66 67 70 72 74 75 76 77 77 77 77 76 76 75 75 75 75 76 76 76 76 76 75 74 74 73 73 73 72 72 71 71 70 69 69 69 69 72 76 81 87
115 108 102 96 93 92 92 93 95 96 95 94 92 90 88 86 84 82 81 79 76 73 70 67 66 66 66 67 67 68 68 68 69 68 66 64 64 64 64 64 61 59 60 63 65 66 66 67 69 71 72 72 73 74 74 74 74 74 74 74 74 74 74 74 74 73 73 72 72 71 71 70 70 70 69 69 68 67 67 66 65 65 65 67 70 74
122 116 109 103 99 97 96 97 99 100 100 98 96 93 91 89 87 85 83 81 79 76 72 68 66 65 66 67 67 67 67 68 68 68 67 66 66 66 67 67 65 63 61 63 65 66 67 67 68 69 69 70 70 70 71 71 71 71 71 71 71 71 71 71 71 70 70 70 69 69 69 68 68 68 68 67 67 66 65 65 65 65 66 66 68 70
129 123 116 111 106 103 101 101 102 103 104 102 100 97 95 92 89 87 85 83 82 79 75 71 68 66 66 66 67 67 67 67 68 67 67 66 66 67 68 69 68 66 64 63 65 67 67 68 68 68 68 68 68 68 68 69 69 68 69 68 68 68 68 68 68 68 68 68 68 68 67 67 67 67 67 67 66 65 64 63 63 63 64 66 68 70
137 130 123 116 111 108 106 106 106 106 107 106 104 101 99 96 91 88 86 85 84 81 79 75 72 69 68 68 68 69 68 68 68 68 67 65 65 66 67 68 69 69 67 66 66 67 68 69 69 69 69 69 68 68 68 68 68 67 67 67 67 67 67 67 67 67 67 67 67 67 67 67 67 67 67 66 66 65 64 62 61 60 61 63 65 68
145 138 130 123 117 113 111 110 110 110 109 109 107 106 104 99 94 91 88 87 85 83 81 79 76 74 71 70 70 70 71 71 70 69 68 66 65 65 66 67 68 69 69 68 67 67 68 69 70 70 70 69 69 68 68 68 67 67 67 67 67 66 66 66 66 66 66 66 67 67 67 67 67 67 67 67 66 66 65 64 62 61 60 60 62 64
151 145 137 130 123 118 115 113 113 112 112 112 111 110 107 103 98 94 91 88 86 85 84 82 80 77 75 72 71 71 72 73 72 71 70 67 66 65 65 66 67 68 69 69 69 68 68 69 69 69 69 69 69 68 68 68 68 68 67 67 67 66 66 66 66 66 66 66 66 66 67 67 67 67 67 67 67 67 67 66 66 64 63 62 62 63
157 151 145 138 130 124 121 118 117 115 115 115 115 113 109 105 100 97 93 90 88 87 85 84 82 80 77 74 72 72 73 74 74 73 72 70 68 67 66 65 66 66 67 68 68 68 67 67 67 67 68 68 68 68 67 67 67 67 67 67 67 66 66 66 66 65 65 65 65 65 65 65 66 66 66 66 66 67 67 68 68 68 68 67 65 65
161 158 153 146 139 132 128 124 122 120 120 119 118 115 111 107 104 100 96 92 90 88 86 85 83 81 79 76 74 73 73 74 74 74 73 73 71 69 67 66 66 66 66 67 67 67 66 66 66 66 66 66 66 66 66 66 66 66 66 66 66 66 66 65 65 65 64 64 64 63 63 63 63 63 64 64 64 64 65 66 67 68 68 68 67 65
166 163 160 154 148 142 136 131 129 126 125 123 121 117 113 110 107 104 100 96 93 90 88 85 83 81 79 77 75 73 73 72 72 72 72 73 72 70 69 68 67 66 66 67 67 67 66 66 65 65 64 64 64 63 63 63 63 64 64 64 64 64 64 64 64 63 63 63 62 62 61 61 61 60 60 60 60 60 61 61 62 62 63 63 63 62
170 168 165 161 156 150 145 140 136 133 130 127 123 119 115 112 110 107 104 100 96 93 90 87 84 82 79 76 73 71 70 70 69 69 69 70 71 71 70 68 67 67 67 67 67 67 67 67 66 65 65 63 62 62 61 61 61 61 61 61 61 61 61 61 61 61 61 61 60 60 59 59 58 58 57 57 56 56 56 56 56 56 56 56 56 56
173 172 170 167 164 159 154 148 144 140 137 131 126 121 117 115 112 110 106 103 99 95 91 88 85 82 80 76 72 69 68 68 67 67 66 67 68 68 68 67 66 66 66 66 66 67 68 68 68 67 66 64 62 61 61 60 60 59 59 58 58 58 58 57 57 57 57 57 57 57 57 56 56 56 55 54 54 53 52 51 50 50 49 49 49 49
176 175 174 172 170 167 163 158 153 149 143 137 130 125 120 117 114 111 108 104 101 97 92 89 85 82 79 76 73 69 67 67 66 66 66 66 66 65 65 65 65 64 63 63 63 64 66 67 69 68 67 65 63 62 61 60 59 58 57 56 56 55 55 54 54 53 53 53 53 53 53 53 53 53 53 52 52 51 50 49 48 46 45 44 43 42
178 177 177 176 175 173 171 167 162 156 150 142 135 130 125 120 116 112 109 105 102 98 94 90 86 82 79 76 73 70 68 66 66 66 66 65 65 64 63 63 62 61 60 59 58 59 61 63 65 66 66 65 64 63 61 60 59 57 56 55 55 54 53 52 51 50 50 49 49 49 49 49 49 49 49 49 49 49 48 48 46 45 43 42 41 39
180 180 180 179 179 179 178 174 169 162 155 148 141 135 129 124 119 115 110 107 103 99 95 91 87 83 79 76 73 70 68 66 65 65 65 65 65 64 62 61 60 59 58 56 54 53 54 57 60 61 62 63 62 61 61 59 58 57 56 55 54 53 51 50 49 48 47 46 45 45 45 45 45 45 45 45 45 45 45 45 45 44 42 41 39 38
181 182 182 182 183 182 181 178 173 166 160 154 148 141 135 129 123 118 113 108 104 101 96 92 89 85 81 78 74 71 68 66 65 65 64 63 63 63 61 60 59 58 57 55 52 50 49 53 56 58 58 58 58 58 58 57 56 55 54 54 53 52 51 49 48 46 45 43 42 42 41 41 40 41 41 41 41 41 41 41 41 41 41 40 37 36
182 183 184 185 185 184 183 180 175 169 165 159 153 147 140 134 128 122 116 111 106 101 97 93 90 86 83 80 76 73 70 68 66 64 63 62 62 61 61 60 59 57 56 53 51 49 47 50 54 55 56 55 54 55 55 55 54 53 51 51 51 50 49 48 46 45 43 42 41 39 38 38 37 37 37 37 37 37 37 37 38 38 39 38 36 34
182 183 185 186 186 186 185 182 177 172 168 163 158 152 145 139 133 127 121 115 109 103 98 93 89 86 82 80 77 75 73 70 68 66 63 62 61 59 59 59 59 58 56 53 50 48 47 49 52 54 54 52 52 52 53 53 53 51 50 49 48 47 47 46 44 43 42 41 39 37 36 35 35 34 33 33 33 33 33 33 34 34 34 34 34 33
182 184 185 186 187 187 186 183 179 175 171 167 162 156 150 144 137 132 125 118 111 104 98 93 88 84 80 77 76 74 74 72 70 67 65 63 61 59 57 57 57 57 56 53 51 48 47 47 50 52 52 51 50 50 52 52 52 51 50 48 46 45 45 45 42 40 39 38 37 36 34 33 32 31 31 30 30 30 30 30 30 30 30 31 30 30
183 184 185 187 188 188 187 185 181 177 174 170 166 160 154 148 142 136 129 121 112 104 98 92 87 82 78 75 72 71 70 70 69 68 66 64 62 59 57 55 54 54 54 52 49 47 46 48 49 50 49 49 48 48 49 50 50 50 49 47 45 43 43 42 40 38 37 35 35 33 32 31 30 29 29 28 28 28 28 28 28 27 27 27 27 27
183 184 186 188 189 189 188 185 182 179 176 173 169 164 158 152 147 140 132 123 114 106 98 91 85 80 75 72 69 65 64 64 64 64 64 63 61 59 56 54 52 51 50 48 47 45 44 45 46 46 46 46 46 46 46 47 48 48 48 46 45 43 42 40 38 36 35 33 32 31 30 28 28 27 27 27 27 27 26 26 26 25 25 24 24 24
183 185 187 189 189 189 188 187 184 181 179 176 172 167 162 157 151 144 137 127 116 107 99 91 84 78 73 69 65 61 58 56 55 55 56 57 56 55 54 51 49 47 45 44 42 39 39 38 40 41 43 45 44 43 43 43 45 46 46 44 43 42 41 39 38 35 33 31 30 28 26 25 25 24 25 25 25 24 23 23 23 23 22 22 22 21
184 186 188 189 190 190 189 187 185 183 181 178 175 171 166 161 156 150 142 133 121 110 101 93 86 79 73 67 62 57 52 49 45 44 45 47 47 48 46 45 43 41 40 38 37 35 35 34 33 33 37 41 42 41 38 38 40 42 42 41 39 39 39 38 36 33 30 28 27 25 23 23 23 23 23 22 22 21 21 21 20 20 20 19 19 19
185 186 188 190 190 190 189 188 186 185 183 181 178 174 170 166 161 154 147 139 129 116 105 97 89 82 75 67 61 54 48 43 38 34 33 35 37 38 38 38 36 34 33 30 30 30 30 28 27 26 27 31 34 36 33 33 35 37 36 37 35 36 35 33 31 29 27 26 24 22 21 22 22 23 21 20 19 19 19 18 17 17 17 17 17 16
185 186 188 189 190 190 189 188 187 186 184 183 180 177 173 170 166 161 154 148 139 128 115 106 96 87 77 67 59 50 43 36 30 25 23 23 25 26 27 27 27 26 26 25 25 24 25 23 21 19 18 20 24 27 27 28 30 30 31 31 31 31 30 27 26 24 24 23 21 20 19 19 19 20 19 19 18 17 16 15 14 14 14 14 14 14
186 187 188 189 190 189 189 189 188 187 186 185 183 181 178 175 173 170 166 162 157 150 139 126 109 94 82 67 55 43 34 26 19 14 12 12 12 12 14 14 14 15 15 14 15 17 18 21 20 14 12 12 16 21 25 26 26 26 28 28 27 25 23 22 20 18 19 19 18 17 17 17 17 16 17 17 16 15 13 12 11 11 11 11 11 10
187 188 189 189 189 189 189 189 188 188 187 187 186 185 183 181 180 179 178 178 178 178 178 171 150 111 88 68 48 31 19 8 3 358 355 355 357 358 358 358 358 358 358 359 359 359 6 14 22 20 16 10 9 14 20 24 25 27 29 27 23 19 18 16 13 13 13 14 13 13 13 13 13 14 14 15 13 11 9 8 8 7 7 7 7 7